Weather History for Gillette, WY

Change the Weather History Date:

Saturday, May 25, 2013

  Actual Average Record
Temperature  
Mean Temperature 63 °F 55 °F  
Max Temperature 83 °F 69 °F 89 °F (1931)
Min Temperature 43 °F 42 °F 30 °F (2004)
Degree Days  
Heating Degree Days 2 10  
Month to date heating degree days 285 331  
Since 1 July heating degree days 7247 7347  
Cooling Degree Days 0 0  
Month to date cooling degree days 8 0  
Year to date cooling degree days 8 0  
Growing Degree Days 12 (Base 50)    
Moisture  
Dew Point 46 °F    
Average Humidity 54    
Maximum Humidity 96    
Minimum Humidity 12    
Precipitation  
Precipitation 0.02 in 0.08 in 0.46 in (2012)
Month to date precipitation 1.14 1.94  
Year to date precipitation 4.26 5.15  
Sea Level Pressure  
Sea Level Pressure 29.78 in    
Wind  
Wind Speed 12 mph (South)    
Max Wind Speed 23 mph    
Max Gust Speed 28 mph    
Visibility 10 miles    
Events      
T = Trace of Precipitation, MM = Missing Value Source: NWS Daily Summary

Daily Weather History Graph

Daily Weather History Graph

Search for Another Location

Airport:

Trip Planner

Search our weather history database for the weather conditions in past years. The results will help you decide how hot, cold, wet, or windy it might be!

Date:

Astronomy

May. 25, 2013 Rise Set
Actual Time 5:25 AM MDT 8:33 PM MDT
Civil Twilight 4:50 AM MDT 9:08 PM MDT
Nautical Twilight 4:05 AM MDT 9:53 PM MDT
Astronomical Twilight 3:11 AM MDT 10:48 PM MDT
Moon 9:23 PM MDT (5/25) 5:55 AM MDT (5/25)
Length of Visible Light 16h 17m
Length of Day
15h 07m
Waxing Gibbous, 99% of the Moon is Illuminated
May 25
Waxing Gibbous
May 31
Last Quarter
Jun 8
New
Jun 16
First Quarter
Jun 23
Full

Hourly Weather History & Observations

Time (MDT) Temp. Dew Point Humidity Pressure Visibility Wind Dir Wind Speed Gust Speed Precip Events Conditions
12:53 AM 42.1 °F 41.0 °F 96% 29.89 in 10.0 mi Calm Calm - N/A   Clear
1:53 AM 48.0 °F 42.1 °F 80% 29.85 in 10.0 mi South 11.5 mph - N/A   Clear
2:53 AM 53.1 °F 46.9 °F 80% 29.83 in 10.0 mi South 12.7 mph - N/A   Clear
3:53 AM 48.9 °F 46.9 °F 93% 29.85 in 10.0 mi SSE 8.1 mph - N/A   Clear
4:53 AM 51.1 °F 48.0 °F 89% 29.84 in 10.0 mi Variable 3.5 mph - N/A   Clear
5:53 AM 52.0 °F 48.9 °F 89% 29.85 in 10.0 mi SSE 3.5 mph - N/A   Clear
6:53 AM 55.9 °F 52.0 °F 87% 29.86 in 10.0 mi Calm Calm - N/A   Clear
7:53 AM 60.1 °F 52.0 °F 75% 29.85 in 10.0 mi SSE 15.0 mph 21.9 mph N/A   Clear
8:53 AM 64.0 °F 53.1 °F 67% 29.84 in 10.0 mi South 15.0 mph - N/A   Clear
9:53 AM 66.9 °F 54.0 °F 63% 29.84 in 10.0 mi South 11.5 mph - N/A   Clear
10:53 AM 70.0 °F 55.0 °F 59% 29.83 in 10.0 mi South 17.3 mph 23.0 mph N/A   Partly Cloudy
11:53 AM 73.0 °F 55.0 °F 53% 29.82 in 10.0 mi SSE 12.7 mph 20.7 mph N/A   Clear
12:53 PM 75.9 °F 54.0 °F 46% 29.81 in 10.0 mi SSE 18.4 mph - N/A   Clear
1:53 PM 78.1 °F 53.1 °F 42% 29.76 in 10.0 mi SSE 15.0 mph - N/A   Clear
2:53 PM 81.0 °F 46.9 °F 30% 29.72 in 10.0 mi South 16.1 mph 23.0 mph N/A   Clear
3:53 PM 81.0 °F 39.0 °F 22% 29.72 in 10.0 mi SSE 15.0 mph 21.9 mph 0.02 in   Scattered Clouds
4:53 PM 82.9 °F 26.1 °F 13% 29.68 in 10.0 mi SSW 17.3 mph 27.6 mph N/A   Clear
5:53 PM 82.0 °F 25.0 °F 12% 29.66 in 10.0 mi SW 19.6 mph 26.5 mph N/A   Clear
6:53 PM 80.1 °F 39.0 °F 23% 29.65 in 10.0 mi South 12.7 mph - N/A   Clear
7:53 PM 73.0 °F 39.9 °F 30% 29.66 in 10.0 mi South 11.5 mph - N/A   Clear
8:53 PM 64.0 °F 41.0 °F 43% 29.69 in 10.0 mi South 13.8 mph - N/A   Unknown
9:53 PM 69.1 °F 43.0 °F 39% 29.68 in 10.0 mi South 15.0 mph - N/A   Clear
10:53 PM 57.0 °F 44.1 °F 62% 29.73 in 10.0 mi SSW 8.1 mph - N/A   Clear
11:53 PM 53.1 °F 48.0 °F 83% 29.75 in 10.0 mi Calm Calm - N/A   Clear